Regional Weather Roundup
Issued by NWS

Home | Current Version | Previous Version | Graphics & Text | Print | Product List | Glossary Off
Versions: 1 2 3 4 5 6 7 8 9 10 11 12 13 14 15 16 17 18 19 20 21 22 23 24 25 26 27 28 29 30 31 32 33 34 35 36 37 38 39 40 41 42 43 44 45 46 47 48 49 50

000
ASUS43 KMKX 241921
RWRWI

WISCONSIN REGIONAL WEATHER ROUNDUP
NATIONAL WEATHER SERVICE MILWAUKEE/SULLIVAN WI
200 PM CDT SAT SEP 24 2016

NOTE: "FAIR" INDICATES FEW OR NO CLOUDS BELOW 12,000 FEET WITH NO
SIGNIFICANT WEATHER AND/OR OBSTRUCTIONS TO VISIBILITY.

WIZ001-002-006>008-014>016-023>028-242000-
NORTHWEST WISCONSIN

CITY           SKY/WX    TMP DP  RH WIND       PRES   REMARKS
SUPERIOR ARPT  CLOUDY    59  56  90 NE8       30.11F
ASHLAND        CLOUDY    67  59  75 VRB6      30.14F
HAYWARD        CLOUDY    66  58  75 SE10      30.13F
SIREN          CLOUDY    66  60  80 SE12G18   30.09F
CUMBERLAND     CLOUDY    63  59  88 SE12G17   30.12F
RICE LAKE      CLOUDY    66  59  77 SE17      30.13F
CHETEK         NOT AVBL
LADYSMITH      CLOUDY    68  58  71 SE14      30.17F
EAU CLAIRE     CLOUDY    67  60  78 SE10      30.12F
MENOMONIE      CLOUDY    69  62  77 E14       30.11F
NEW RICHMOND   CLOUDY    66  60  83 SE10      30.10F
OSCEOLA        CLOUDY    67  66  97 SE13G20   30.11F
$$

WIZ003>005-009-010-017-018-242000-
NORTH CENTRAL WISCONSIN

CITY           SKY/WX    TMP DP  RH WIND       PRES   REMARKS
MANITOWISH WTR NOT AVBL
ARBOR VITAE    PTSUNNY   67  56  67 S13       30.20F
WOODRUFF       PTSUNNY   67  56  67 S13       30.20F
RHINELANDER    CLOUDY    66  54  65 S8        30.22F
EAGLE RIVER    SUNNY     67  51  55 SE7       30.20F
LAND O LAKES   CLOUDY    68  51  54 SE9       30.22F
PHILLIPS       CLOUDY    64  58  80 SE9       30.18F
TOMAHAWK       CLOUDY    65  54  69 SE3       30.21F
MEDFORD        CLOUDY    64  59  86 SE9       30.18F
MERRILL        CLOUDY    65  55  70 SE8       30.22F
$$

WIZ029-030-035-036-043>047-242000-
CENTRAL WISCONSIN

CITY           SKY/WX    TMP DP  RH WIND       PRES   REMARKS
WAUSAU         MOSUNNY   68  53  58 SE12      30.19F
MOSINEE        MOSUNNY   66  55  68 SE12      30.21F
MARSHFIELD     CLOUDY    65  56  72 SE10      30.18F
STEVENS POINT  CLOUDY    66  54  64 E10G16    30.20F
WAUPACA        PTSUNNY   70  55  59 E10       30.21F
WAUTOMA        CLOUDY    68  58  70 SE7       30.21F
WISC RAPIDS    LGT RAIN  65  57  75 SE8       30.20F
CAMP DOUGLAS   MOSUNNY   64  60  86 SE12G21   30.18F
$$

WIZ011>013-019>022-031-037>040-048>050-242000-
NORTHEAST WISCONSIN

CITY           SKY/WX    TMP DP  RH WIND       PRES   REMARKS
ANTIGO         CLOUDY    65  54  68 S8        30.22F
SHAWANO        MOSUNNY   72  54  53 SE13      30.22F
OCONTO         NOT AVBL
STURGEON BAY   SUNNY     65  51  60 E6        30.25F
GREEN BAY      SUNNY     69  54  58 MISG      30.23F
MANITOWOC      MOSUNNY   64  54  69 SE9       30.24F
APPLETON       PTSUNNY   68  52  56 SE10      30.21F
CLINTONVILLE   NOT AVBL
OSHKOSH        CLOUDY    67  55  65 SE10      30.20F
$$

WIZ032>034-041-042-053>061-242000-
SOUTHWEST WISCONSIN

CITY           SKY/WX    TMP DP  RH WIND       PRES   REMARKS
LA CROSSE      CLOUDY    71  63  75 SE14      30.12F
SPARTA         CLOUDY    66  61  84 SE10      30.16F
VIROQUA        CLOUDY    66  62  85 E9        30.16F
BOSCOBEL       CLOUDY    71  63  75 VRB3      30.15F
PRAIRIE DU CHI CLOUDY    69  63  81 E8        30.13F
PLATTEVILLE    CLOUDY    70  66  88 E8        30.16F
$$

WIZ056-057-062-063-064-067-068-242000-
SOUTH CENTRAL WISCONSIN

CITY           SKY/WX    TMP DP  RH WIND       PRES   REMARKS
REEDSBURG      NOT AVBL
BARABOO/DELLS  CLOUDY    64  59  85 E7        30.19F
LONE ROCK      CLOUDY    68  61  78 E13       30.17F
MINERAL POINT  CLOUDY    70  64  83 SE7       30.17F
MADISON        CLOUDY    67  60  78 E14       30.18F
MIDDLETON      CLOUDY    68  61  78 E14       30.18F
WATERTOWN      CLOUDY    67  60  76 E9        30.19F
MONROE         CLOUDY    70  63  78 E9        30.16F
JANESVILLE     CLOUDY    73  63  68 E12       30.16F
$$

WIZ051-052-058>065-066-070>072-242000-
SOUTHEAST WISCONSIN

CITY           SKY/WX    TMP DP  RH WIND       PRES   REMARKS
MILWAUKEE      PTSUNNY   68  61  78 E12       30.20F
WAUKESHA       CLOUDY    66  57  72 E10       30.22F
MILWAUKEE/TIMM NOT AVBL
RACINE         CLOUDY    69  61  75 E13       30.21F
BURLINGTON     CLOUDY    67  58  73 E8        30.19F
KENOSHA        CLOUDY    67  61  81 E9        30.20F
FOND DU LAC    LGT RAIN  68  57  68 SE9       30.20F
SHEBOYGAN      MOSUNNY   66  55  67 S9        30.23F
WEST BEND      CLOUDY    64  55  72 E9        30.21F
JUNEAU         CLOUDY    66  58  73 E9        30.21F
$$

LSZ147-162-242000-
LAKE SUPERIOR

STATION/POSITION TIME  TEMP    WIND        PRES    WAVE
                       AIR SEA DIR/SP/G            HT/PER
                 (UTC) (F)     (DEG/KT/KT) (MB)    (FT/S)
W MID LAKE BUOY  1850   63 61  110/ 12/ 14 1021.4F   2/ 4
DEVILS ISLAND    1900   61      70/ 13/ 15 1021.1F
SAXON HARBOR     1800   69     160/  4/  8 1021.0F
$$

LMZ867-665-643>646-242000-
LAKE MICHIGAN

STATION/POSITION TIME  TEMP    WIND        PRES    WAVE
                       AIR SEA DIR/SP/G            HT/PER
                 (UTC) (F)     (DEG/KT/KT) (MB)    (FT/S)
CHAMBERS ISLAND  1800   65     100/  5/  9 1024.4F
S GREEN BAY BUOY 1900   65 67  160/  6/  8 1023.3F
N MID LAKE BUOY  1850   62 68  110/ 12/ 14 1024.4F   2/ 3
NORTHPORT PIER   1800   63     130/ 11/ 13 1024.7F
KEWAUNEE LAKESHO 1800   63     150/  9/ 11 1023.9F
SHEBOYGAN LAKESH 1900   63     130/ 11/ 12 1023.1F
PORT WASHINGTON  1800   63     110/  5/  7 1024.4F
ATWATER BUOY     1900   64 62  100/  8/ 10 1022.8F
MILWAUKEE LAKESH 1810   65      80/  6/  6   N/A
S MID LAKE BUOY  1850   66 72   90/ 10/ 12 1022.2F   2/ 4
KENOSHA   LAKESH 1900   67     110/  8/ 10 1022.0F
$$

TC  - TEMPERATURE IN CELSIUS
VSB - VISIBILITY IN STATUTE MILES
WCI - WIND CHILL INDEX
HX  - HEAT INDEX





USA.gov is the U.S. government's official web portal to all federal, state and local government web resources and services.